Location: Ferma
(41.9500°N, 44.5167°E)
Time: 03:12:07
(UTC+00:00)

NOSS 2-3 (D) - Pass Details

Date: 05 June 2022
Orbit: 536 x 1674 km, 63.3° (Epoch: 02 June)

Event Time Altitude Azimuth Distance (km) Brightness Sun altitude
Rises 16:52:49 0° 330° (NNW) 3,377 8.7 -3.8°
Reaches altitude 10° 16:55:16 10° 340° (NNW) 2,592 7.7 -4.2°
Maximum altitude 17:00:53 35° 45° (NE) 1,674 5.7 -5.0°
Drops below altitude 10° 17:08:05 10° 109° (ESE) 3,345 6.7 -6.1°
Enters shadow 17:09:29 - 113° (ESE) 3,796 6.9 -6.3°
